Weather in Nisekoan

Japan     42°48′16″N   140°41′58″E
temp.,
°C
wind,
m/s
gust,
m/s
humid.,
%
clouds,
%
prec.,
mm/h
press.,
hPa
HPBL,
m
14 may, fri
fri1400:00+7se0087100 0.0 101410
03:00+6nne118763 0.0 101410
06:00+9nne12720 0.0 101476
09:00+16wnw12475 0.0 1013886
12:00+18nw464499 0.0 10131235
15:00+17nw46440 0.0 10131169
18:00+13n22690 0.0 101420
21:00+9ne22735 0.0 101613
15 may, sat
sat1500:00+8ene116850 0.0 101711
03:00+8ene115853 0.0 101711
06:00+11se125690 0.0 101753
09:00+17s354496 0.0 1016567
12:00+17s484584 0.0 1015949
15:00+18s6939100 0.0 1013983
18:00+13s356284 0.0 1013142
21:00+7sse22907 0.0 101429
16 may, sun
sun1600:00+6sse2298100 0.0 101452
03:00+6sse119861 0.0 101232
06:00+9s229150 0.0 1011161
09:00+10s2293100 0.2 1010136
12:00+11s1294100 0.1 1010256
15:00+12ene1197100 1.3 1008137
18:00+11ne0199100 1.1 100817
21:00+11ne1199100 1.3 100716
17 may, mon
mon1700:00+11nne1199100 1.2 100619
03:00+11n2299100 3.0 100480
06:00+10nne2298100 0.6 100489
09:00+11ene1196100 0.9 100373
12:00+15sse1181100 0.0 1001524
15:00+13ssw1195100 0.9 1001206
18:00+12sw1199100 1.9 100139
21:00+12nne1199100 4.8 100117
18 may, tue
tue1800:00+12wsw0097100 0.1 100112
03:00+11nnw1196100 0.1 100117
06:00+12n2292100 0.0 100361
09:00+17nnw23535 0.0 1003482
12:00+22nw23302 0.0 10031683
15:00+21nw33363 0.0 10041389
18:00+15nw2267100 0.0 100635
21:00+11n2264100 0.0 100926